Showing default

SUPERVIEW NEO-2 04, 62080

Orbit data source: Space-Track

SUPERVIEW NEO-2 04, 62080 is a payload satellite owned by Siwei (CN) in SSO that was launched on Sun, 24 Nov 2024 UTC via a CHANG ZHENG 2C launch vehicle from the Jiuquan Satellite Launch Center, China (JSC). Payloads include a variety of satellites, spacecraft, and rockets equipped with specific instruments for various scientific and technological missions. These include communications satellites like Starlink; space stations such as the ISS; scientific satellites like the Hubble; Earth observation satellites from companies like Planet Labs, Umbra, and HawkEye 360; GPS; miniature CubeSats for education and research; and military/defense satellites.

Loading next visibility...
SUPERVIEW NEO-2 04 details
Identifier
62080, 2024-218C
Orbit
SSO
Last TLE update19 hours ago
Origin
Flag of CNSiwei (CN / PRC)
ManufacturerDFH
MissionOperational spacecraft
Bus & MotorSIWEI, Unknown motor
Mass600 kg wet, ~500 kg dry
Launch date (UTC)
2024-11-24 (1 month ago)
Launch vehicle
CHANG ZHENG 2C
Launch site
Jiuquan Satellite Launch Center, China (JSC)
Object type
Payload
Rocket body
Debris
Shape & HBRUnknown
Radar Cross SectionLarge (>1 m²)

Expand to show TLE details & history

TLE from 19 hours ago
0 SUPERVIEW NEO-2 04
1 62080U 24218C   24360.64834038 -.00000039  00000-0  13480-5 0  9998
2 62080  97.4382   4.6988 0001727  84.5033 275.6398 15.19720187  4652
Epoch: 2024-12-25T15:33Z
Definitive object data (Epoch: 2024-12-25T15:33:36.608Z)
Latitude-0.00013°
Longitude36.65721°
Altitude509.658 km
Speed7.609 km/s
True Right ascension00h 18m 47s
True Declination0° 00' 00"
Sunlit
Object was in daylight at TLE epoch
Visualization TLE readout
Latitude10.98351°
Longitude35.99385°
Altitude508.618 km
Speed7.611 km/s
Apparent Right ascension23h 17m 24s
Apparent Declination-13° 57' 37"
Sunlit
Object is in daylight
Visualization observer readout
Local Sidereal Time09:55:29
Azimuth319.556° NNW
Elevation-58.44°
Doppler factor1
Orbital elements
Apogee altitude504.842 km
Perigee altitude502.465 km
Semi-major axis6,881.79 km
Eccentricity0.0001727
Inclination97.4382°
RAAN4.6988°
Arg. of periapsis84.5033°
True anomaly275.62011°
Mean anomaly275.6398°
Eccentric anomaly275.62995°
Mean motion3.80182 °/min
BSTAR0.000001348
Orbital period94.69 mins
Loading maneuver chart data...
Loading historical data...
Loading historical data...
Loading historical data...
Loading historical data...
Loading historical data...
Loading historical data...
Loading historical data...
Other satellites on launch #218 in the year 2024 (2024-11-24 UTC)

SUPERVIEW NEO-2 04 Visibility forecast

Observer location: undefined°, undefined

Span
Click to sort rows by Start time (UTC) header in descending order
Start Az.
Max El. time (UTC)
Max El. Az.
Max El.
End time (UTC)
End Az.
6 mins2024-12-26 12:40:17.175Z40.147° NE2024-12-26 12:43:17.175Z95.707° ESE22.398°2024-12-26 12:46:17.175Z151.432° SSE
5 mins2024-12-27 00:53:17.175Z197.886° SSW2024-12-27 00:55:17.175Z270.396° WNW36.427°2024-12-27 00:58:17.175Z334.368° NNW
|